{"data":{"norad_id":58974,"epoch":"2026-09-20T07:35:24.611712Z","epoch_age_seconds":171547,"freshness":"FRESH","line1":"1 58974U 24031K   26263.31625708  .00000681  00000+0  31279-4 0  9994","line2":"2 58974  53.1587 110.3846 0000828 115.4441 244.6648 15.34394514146368","mean_motion":15.34394514,"eccentricity":8.28e-5,"inclination_deg":53.1587,"raan_deg":110.3846,"arg_perigee_deg":115.4441,"mean_anomaly_deg":244.6648,"bstar":3.1279e-5,"rev_number":14636,"period_min":93.848093620074,"perigee_km":462.15312288182,"apogee_km":463.2859687258,"semimajor_km":6840.8565458038,"source":"CELESTRAK","updated_at":"2026-09-21T09:00:34.020496Z"}}